| time (UTC) | temp C | wind direction | speed KPH | gust KPH | rain 1hr cm | rain 24hr cm | rain mn cm | humidity % | barometer mb |
| 20260503034503 | 3 | 0 | 0.0 | 0.0 | 0.00 | 0.00 | 0.00 | 90 | 1017.8 |
| 20260503034024 | 2 | 0 | 0.0 | 0.0 | 0.00 | 0.00 | 0.00 | 90 | 1017.8 |
| 20260503033503 | 2 | 0 | 0.0 | 0.0 | 0.00 | 0.00 | 0.00 | 90 | 1018.0 |
| 20260503033003 | 2 | 0 | 0.0 | 0.0 | 0.00 | 0.00 | 0.00 | 90 | 1017.5 |
| 20260503032503 | 3 | 326 | 0.0 | 1.6 | 0.00 | 0.00 | 0.00 | 89 | 1017.7 |
| 20260503032003 | 3 | 323 | 0.0 | 1.6 | 0.00 | 0.00 | 0.00 | 88 | 1017.7 |
| 20260503031504 | 3 | 323 | 0.0 | 1.6 | 0.00 | 0.00 | 0.00 | 87 | 1017.8 |
| 20260503031003 | 3 | 322 | 0.0 | 1.6 | 0.00 | 0.00 | 0.00 | 90 | 1017.9 |
| 20260503030504 | 3 | 322 | 0.0 | 1.6 | 0.00 | 0.00 | 0.00 | 89 | 1017.7 |
| 20260503030024 | 3 | 322 | 0.0 | 1.6 | 0.00 | 0.00 | 0.00 | 89 | 1017.8 |
| 20260503025503 | 3 | 322 | 0.0 | 1.6 | 0.00 | 0.00 | 0.00 | 90 | 1017.7 |
| 20260503025003 | 3 | 321 | 0.0 | 1.6 | 0.00 | 0.00 | 0.00 | 90 | 1017.9 |
| 20260503024503 | 3 | 321 | 0.0 | 1.6 | 0.00 | 0.00 | 0.00 | 90 | 1017.7 |
| 20260503024003 | 3 | 0 | 0.0 | 0.0 | 0.00 | 0.00 | 0.00 | 90 | 1017.9 |
| 20260503023503 | 3 | 0 | 0.0 | 0.0 | 0.00 | 0.00 | 0.00 | 91 | 1017.9 |
| 20260503023003 | 3 | 319 | 0.0 | 1.6 | 0.00 | 0.00 | 0.00 | 91 | 1017.8 |
| 20260503022503 | 3 | 319 | 0.0 | 1.6 | 0.00 | 0.00 | 0.00 | 90 | 1017.8 |
| 20260503022003 | 3 | 0 | 0.0 | 0.0 | 0.00 | 0.00 | 0.00 | 90 | 1017.6 |
| 20260503021524 | 3 | 0 | 0.0 | 0.0 | 0.00 | 0.00 | 0.00 | 88 | 1017.6 |
| 20260503021024 | 4 | 0 | 0.0 | 0.0 | 0.00 | 0.00 | 0.00 | 87 | 1017.7 |
| 20260503020503 | 4 | 0 | 0.0 | 0.0 | 0.00 | 0.00 | 0.00 | 87 | 1017.5 |
| 20260503020003 | 4 | 0 | 0.0 | 0.0 | 0.00 | 0.00 | 0.00 | 87 | 1017.3 |
| 20260503015503 | 4 | 0 | 0.0 | 0.0 | 0.00 | 0.00 | 0.00 | 87 | 1017.6 |
| 20260503015003 | 4 | 0 | 0.0 | 0.0 | 0.00 | 0.00 | 0.00 | 86 | 1017.5 |
| 20260503014503 | 4 | 0 | 0.0 | 0.0 | 0.00 | 0.00 | 0.00 | 86 | 1017.2 |
| 20260503014003 | 4 | 0 | 0.0 | 0.0 | 0.00 | 0.00 | 0.00 | 86 | 1017.5 |
| 20260503013503 | 5 | 0 | 0.0 | 0.0 | 0.00 | 0.00 | 0.00 | 85 | 1017.5 |
| 20260503013003 | 5 | 0 | 0.0 | 0.0 | 0.00 | 0.00 | 0.00 | 84 | 1017.4 |
| 20260503012503 | 5 | 318 | 0.0 | 1.6 | 0.00 | 0.00 | 0.00 | 83 | 1017.5 |
| 20260503012024 | 5 | 317 | 0.0 | 1.6 | 0.00 | 0.00 | 0.00 | 83 | 1017.6 |
| 20260503011503 | 5 | 317 | 0.0 | 1.6 | 0.00 | 0.00 | 0.00 | 83 | 1017.5 |
| 20260503011003 | 6 | 317 | 0.0 | 1.6 | 0.00 | 0.00 | 0.00 | 81 | 1017.5 |
| 20260503010503 | 5 | 318 | 0.0 | 1.6 | 0.00 | 0.00 | 0.00 | 82 | 1017.7 |
| 20260503010003 | 6 | 317 | 0.0 | 1.6 | 0.00 | 0.00 | 0.00 | 82 | 1017.6 |
| 20260503005524 | 6 | 321 | 0.0 | 1.6 | 0.00 | 0.00 | 0.00 | 79 | 1017.7 |
| 20260503005003 | 6 | 327 | 0.0 | 1.6 | 0.00 | 0.00 | 0.00 | 78 | 1017.7 |
| 20260503004524 | 6 | 335 | 0.0 | 1.6 | 0.00 | 0.00 | 0.00 | 79 | 1017.8 |
| 20260503004003 | 6 | 336 | 0.0 | 1.6 | 0.00 | 0.00 | 0.00 | 79 | 1017.7 |
| 20260503003503 | 6 | 337 | 0.0 | 1.6 | 0.00 | 0.00 | 0.00 | 79 | 1017.6 |
| 20260503003003 | 6 | 344 | 0.0 | 1.6 | 0.00 | 0.00 | 0.00 | 78 | 1017.6 |
| 20260503002503 | 6 | 344 | 0.0 | 1.6 | 0.00 | 0.00 | 0.00 | 77 | 1017.8 |
| 20260503002003 | 6 | 337 | 0.0 | 1.6 | 0.00 | 0.00 | 0.00 | 77 | 1017.7 |
| 20260503001503 | 7 | 326 | 0.0 | 1.6 | 0.00 | 0.00 | 0.00 | 76 | 1017.7 |
| 20260503001003 | 7 | 325 | 0.0 | 1.6 | 0.00 | 0.00 | 0.00 | 76 | 1017.8 |
| 20260503000507 | 7 | 325 | 0.0 | 1.6 | 0.00 | 0.00 | 0.00 | 76 | 1017.8 |
| 20260503000007 | 6 | 325 | 0.0 | 1.6 | 0.00 | 0.00 | 0.00 | 78 | 1017.9 |
| 20260502235528 | 7 | 333 | 0.0 | 1.6 | 0.00 | 0.00 | 0.00 | 78 | 1017.8 |
| 20260502235007 | 7 | 331 | 0.0 | 1.6 | 0.00 | 0.00 | 0.00 | 76 | 1017.9 |
| 20260502234507 | 7 | 325 | 0.0 | 1.6 | 0.00 | 0.00 | 0.00 | 76 | 1018.0 |
| 20260502234007 | 7 | 328 | 0.0 | 1.6 | 0.00 | 0.00 | 0.00 | 75 | 1018.0 |
| 20260502233507 | 7 | 325 | 0.0 | 1.6 | 0.00 | 0.00 | 0.00 | 76 | 1018.2 |
| 20260502233028 | 7 | 324 | 0.0 | 1.6 | 0.00 | 0.00 | 0.00 | 76 | 1018.0 |
| 20260502232507 | 6 | 0 | 0.0 | 0.0 | 0.00 | 0.00 | 0.00 | 79 | 1018.2 |
| 20260502232007 | 6 | 0 | 0.0 | 0.0 | 0.00 | 0.00 | 0.00 | 78 | 1018.1 |
| 20260502231528 | 7 | 0 | 0.0 | 0.0 | 0.00 | 0.00 | 0.00 | 77 | 1018.1 |
| 20260502231007 | 7 | 315 | 0.0 | 1.6 | 0.00 | 0.00 | 0.00 | 75 | 1018.1 |
| 20260502230507 | 7 | 296 | 0.0 | 1.6 | 0.00 | 0.00 | 0.00 | 74 | 1018.0 |
| 20260502230007 | 7 | 292 | 0.0 | 1.6 | 0.00 | 0.00 | 0.00 | 74 | 1018.1 |
| 20260502225507 | 6 | 288 | 0.0 | 1.6 | 0.00 | 0.00 | 0.00 | 78 | 1018.2 |
| 20260502225007 | 7 | 280 | 0.0 | 1.6 | 0.00 | 0.00 | 0.00 | 78 | 1018.2 |
| 20260502224507 | 7 | 280 | 0.0 | 1.6 | 0.00 | 0.00 | 0.00 | 76 | 1018.0 |
| 20260502224028 | 7 | 0 | 0.0 | 0.0 | 0.00 | 0.00 | 0.00 | 76 | 1018.1 |
| 20260502223507 | 7 | 280 | 0.0 | 1.6 | 0.00 | 0.00 | 0.00 | 75 | 1018.5 |
| 20260502223028 | 7 | 280 | 0.0 | 1.6 | 0.00 | 0.00 | 0.00 | 74 | 1018.2 |
| 20260502222507 | 7 | 280 | 0.0 | 1.6 | 0.00 | 0.00 | 0.00 | 76 | 1018.4 |
| 20260502222028 | 7 | 280 | 0.0 | 1.6 | 0.00 | 0.00 | 0.00 | 77 | 1018.3 |
| 20260502221506 | 7 | 0 | 0.0 | 0.0 | 0.00 | 0.00 | 0.00 | 77 | 1018.3 |
| 20260502221007 | 7 | 0 | 0.0 | 0.0 | 0.00 | 0.00 | 0.00 | 78 | 1018.4 |
| 20260502220007 | 8 | 0 | 0.0 | 0.0 | 0.00 | 0.00 | 0.00 | 76 | 1018.3 |
| 20260502215507 | 8 | 279 | 0.0 | 1.6 | 0.00 | 0.00 | 0.00 | 74 | 1018.6 |
| 20260502215006 | 8 | 279 | 0.0 | 1.6 | 0.00 | 0.00 | 0.00 | 73 | 1018.5 |
| 20260502214506 | 8 | 279 | 0.0 | 1.6 | 0.00 | 0.00 | 0.00 | 71 | 1018.4 |
| 20260502214006 | 8 | 279 | 0.0 | 1.6 | 0.00 | 0.00 | 0.00 | 72 | 1018.3 |
| 20260502213507 | 8 | 277 | 0.0 | 1.6 | 0.00 | 0.00 | 0.00 | 73 | 1018.8 |
| 20260502213028 | 8 | 278 | 0.0 | 1.6 | 0.00 | 0.00 | 0.00 | 72 | 1018.4 |
| 20260502212506 | 8 | 279 | 0.0 | 1.6 | 0.00 | 0.00 | 0.00 | 72 | 1018.4 |
| 20260502212006 | 9 | 280 | 0.0 | 1.6 | 0.00 | 0.00 | 0.00 | 71 | 1018.5 |
| 20260502211506 | 9 | 280 | 0.0 | 1.6 | 0.00 | 0.00 | 0.00 | 71 | 1018.8 |
| 20260502211006 | 9 | 280 | 0.0 | 1.6 | 0.00 | 0.00 | 0.00 | 72 | 1018.5 |
| 20260502210506 | 9 | 0 | 0.0 | 0.0 | 0.00 | 0.00 | 0.00 | 73 | 1018.4 |
| 20260502210006 | 9 | 280 | 0.0 | 1.6 | 0.00 | 0.00 | 0.00 | 72 | 1018.8 |
| 20260502205506 | 10 | 280 | 0.0 | 1.6 | 0.00 | 0.00 | 0.00 | 70 | 1018.8 |
| 20260502205006 | 10 | 280 | 0.0 | 1.6 | 0.00 | 0.00 | 0.00 | 69 | 1018.9 |
| 20260502204527 | 10 | 280 | 0.0 | 1.6 | 0.00 | 0.00 | 0.00 | 69 | 1018.8 |
| 20260502204006 | 10 | 281 | 0.0 | 1.6 | 0.00 | 0.00 | 0.00 | 69 | 1018.5 |
| 20260502203527 | 10 | 281 | 0.0 | 1.6 | 0.00 | 0.00 | 0.00 | 67 | 1018.9 |
| 20260502203006 | 10 | 277 | 0.0 | 3.2 | 0.00 | 0.00 | 0.00 | 66 | 1019.0 |
| 20260502202506 | 10 | 275 | 0.0 | 3.2 | 0.00 | 0.00 | 0.00 | 66 | 1019.0 |
| 20260502202006 | 10 | 263 | 0.0 | 1.6 | 0.00 | 0.00 | 0.00 | 67 | 1018.9 |
| 20260502201506 | 10 | 0 | 0.0 | 0.0 | 0.00 | 0.00 | 0.00 | 66 | 1018.9 |
| 20260502201006 | 10 | 0 | 0.0 | 0.0 | 0.00 | 0.00 | 0.00 | 66 | 1019.0 |
| 20260502200506 | 11 | 263 | 0.0 | 1.6 | 0.00 | 0.00 | 0.00 | 66 | 1018.9 |
| 20260502200006 | 11 | 263 | 0.0 | 1.6 | 0.00 | 0.00 | 0.00 | 64 | 1019.0 |
| 20260502195506 | 11 | 263 | 0.0 | 1.6 | 0.00 | 0.00 | 0.00 | 63 | 1019.0 |
| 20260502195006 | 11 | 263 | 0.0 | 1.6 | 0.00 | 0.00 | 0.00 | 63 | 1018.9 |
| 20260502194506 | 11 | 263 | 0.0 | 1.6 | 0.00 | 0.00 | 0.00 | 62 | 1018.8 |
| 20260502194006 | 11 | 262 | 0.0 | 1.6 | 0.00 | 0.00 | 0.00 | 62 | 1018.6 |
| 20260502193506 | 11 | 262 | 0.0 | 1.6 | 0.00 | 0.00 | 0.00 | 62 | 1018.8 |
| 20260502193006 | 11 | 262 | 0.0 | 1.6 | 0.00 | 0.00 | 0.00 | 61 | 1019.0 |
| 20260502192506 | 12 | 0 | 0.0 | 0.0 | 0.00 | 0.00 | 0.00 | 61 | 1018.8 |
| 20260502192006 | 12 | 0 | 0.0 | 0.0 | 0.00 | 0.00 | 0.00 | 61 | 1019.0 |
| 20260502191506 | 12 | 0 | 0.0 | 0.0 | 0.00 | 0.00 | 0.00 | 60 | 1018.9 |
| 20260502191006 | 12 | 0 | 0.0 | 0.0 | 0.00 | 0.00 | 0.00 | 58 | 1018.8 |
| 20260502190506 | 13 | 262 | 0.0 | 1.6 | 0.00 | 0.00 | 0.00 | 57 | 1019.0 |
| 20260502190006 | 13 | 262 | 0.0 | 1.6 | 0.00 | 0.00 | 0.00 | 58 | 1018.8 |
| 20260502185506 | 13 | 262 | 0.0 | 1.6 | 0.00 | 0.00 | 0.00 | 56 | 1018.5 |
| 20260502185006 | 13 | 262 | 0.0 | 1.6 | 0.00 | 0.00 | 0.00 | 55 | 1018.5 |
| 20260502184506 | 13 | 259 | 0.0 | 1.6 | 0.00 | 0.00 | 0.00 | 55 | 1018.8 |
| 20260502184006 | 14 | 259 | 0.0 | 1.6 | 0.00 | 0.00 | 0.00 | 55 | 1018.4 |
| 20260502183506 | 14 | 258 | 0.0 | 1.6 | 0.00 | 0.00 | 0.00 | 54 | 1018.4 |
| 20260502183006 | 14 | 258 | 0.0 | 1.6 | 0.00 | 0.00 | 0.00 | 53 | 1018.6 |
| 20260502182006 | 15 | 0 | 0.0 | 0.0 | 0.00 | 0.00 | 0.00 | 52 | 1018.4 |
| 20260502181506 | 15 | 0 | 0.0 | 0.0 | 0.00 | 0.00 | 0.00 | 52 | 1018.3 |
| 20260502181006 | 16 | 0 | 0.0 | 0.0 | 0.00 | 0.00 | 0.00 | 51 | 1018.4 |
| 20260502180506 | 16 | 0 | 0.0 | 0.0 | 0.00 | 0.00 | 0.00 | 50 | 1018.3 |
| 20260502170506 | 20 | 208 | 1.6 | 3.2 | 0.00 | 0.00 | 0.00 | 37 | 1018.0 |
| 20260502164006 | 22 | 88 | 1.6 | 4.8 | 0.00 | 0.00 | 0.00 | 28 | 1018.4 |
| 20260502163506 | 22 | 82 | 3.2 | 6.4 | 0.00 | 0.00 | 0.00 | 29 | 1018.3 |
| 20260502163006 | 22 | 58 | 3.2 | 9.7 | 0.00 | 0.00 | 0.00 | 31 | 1018.4 |
| 20260502162506 | 22 | 43 | 1.6 | 9.7 | 0.00 | 0.00 | 0.00 | 30 | 1018.5 |
| 20260502162006 | 22 | 53 | 1.6 | 4.8 | 0.00 | 0.00 | 0.00 | 28 | 1018.5 |
| 20260502161527 | 23 | 74 | 1.6 | 4.8 | 0.00 | 0.00 | 0.00 | 28 | 1018.5 |
| 20260502161027 | 23 | 202 | 0.0 | 3.2 | 0.00 | 0.00 | 0.00 | 27 | 1018.6 |
| 20260502160506 | 24 | 220 | 0.0 | 3.2 | 0.00 | 0.00 | 0.00 | 27 | 1018.6 |
| 20260502152026 | 24 | 352 | 1.6 | 3.2 | 0.00 | 0.00 | 0.00 | 25 | 1019.0 |
| 20260502151506 | 24 | 29 | 0.0 | 3.2 | 0.00 | 0.00 | 0.00 | 25 | 1019.0 |
| 20260502151005 | 24 | 103 | 1.6 | 14.5 | 0.00 | 0.00 | 0.00 | 26 | 1019.2 |
| 20260502150506 | 23 | 80 | 4.8 | 14.5 | 0.00 | 0.00 | 0.00 | 28 | 1019.0 |
| 20260502130505 | 23 | 62 | 3.2 | 9.7 | 0.00 | 0.00 | 0.00 | 27 | 1020.4 |
| 20260502123505 | 24 | 349 | 1.6 | 6.4 | 0.00 | 0.00 | 0.00 | 26 | 1020.5 |
| 20260502123005 | 24 | 18 | 3.2 | 9.7 | 0.00 | 0.00 | 0.00 | 27 | 1020.8 |
| 20260502122505 | 23 | 60 | 3.2 | 9.7 | 0.00 | 0.00 | 0.00 | 27 | 1020.7 |
| 20260502122005 | 24 | 58 | 1.6 | 9.7 | 0.00 | 0.00 | 0.00 | 26 | 1021.0 |
| 20260502121526 | 23 | 64 | 3.2 | 9.7 | 0.00 | 0.00 | 0.00 | 26 | 1020.9 |
| 20260502121005 | 23 | 93 | 3.2 | 12.9 | 0.00 | 0.00 | 0.00 | 25 | 1021.0 |
| 20260502120505 | 22 | 79 | 4.8 | 14.5 | 0.00 | 0.00 | 0.00 | 26 | 1021.1 |
| 20260502115505 | 23 | 76 | 3.2 | 9.7 | 0.00 | 0.00 | 0.00 | 25 | 1021.2 |
| 20260502115005 | 23 | 57 | 3.2 | 9.7 | 0.00 | 0.00 | 0.00 | 28 | 1021.3 |
| 20260502114005 | 22 | 61 | 3.2 | 12.9 | 0.00 | 0.00 | 0.00 | 29 | 1021.6 |
| 20260502113505 | 22 | 95 | 4.8 | 16.1 | 0.00 | 0.00 | 0.00 | 31 | 1021.4 |
| 20260502113005 | 21 | 98 | 4.8 | 16.1 | 0.00 | 0.00 | 0.00 | 29 | 1021.4 |
| 20260502112526 | 23 | 88 | 3.2 | 12.9 | 0.00 | 0.00 | 0.00 | 28 | 1021.6 |
| 20260502112026 | 22 | 266 | 3.2 | 12.9 | 0.00 | 0.00 | 0.00 | 30 | 1021.6 |
| 20260502111505 | 22 | 262 | 3.2 | 12.9 | 0.00 | 0.00 | 0.00 | 30 | 1021.8 |
| 20260502111005 | 23 | 18 | 3.2 | 11.3 | 0.00 | 0.00 | 0.00 | 28 | 1021.5 |
| 20260502110505 | 22 | 49 | 3.2 | 11.3 | 0.00 | 0.00 | 0.00 | 30 | 1021.8 |
| 20260502110005 | 23 | 57 | 3.2 | 11.3 | 0.00 | 0.00 | 0.00 | 31 | 1021.8 |
| 20260502105505 | 22 | 54 | 3.2 | 9.7 | 0.00 | 0.00 | 0.00 | 30 | 1022.0 |
| 20260502105005 | 22 | 59 | 1.6 | 9.7 | 0.00 | 0.00 | 0.00 | 29 | 1022.3 |
| 20260502104505 | 23 | 68 | 1.6 | 9.7 | 0.00 | 0.00 | 0.00 | 30 | 1022.4 |
| 20260502104005 | 22 | 69 | 3.2 | 9.7 | 0.00 | 0.00 | 0.00 | 32 | 1022.3 |
| 20260502103505 | 22 | 232 | 3.2 | 11.3 | 0.00 | 0.00 | 0.00 | 32 | 1022.4 |
| 20260502103026 | 21 | 253 | 3.2 | 11.3 | 0.00 | 0.00 | 0.00 | 31 | 1022.6 |
| 20260502102505 | 22 | 20 | 1.6 | 9.7 | 0.00 | 0.00 | 0.00 | 31 | 1022.5 |
| 20260502101505 | 21 | 53 | 3.2 | 11.3 | 0.00 | 0.00 | 0.00 | 32 | 1022.4 |
| 20260502101026 | 22 | 40 | 3.2 | 11.3 | 0.00 | 0.00 | 0.00 | 30 | 1022.6 |
| 20260502100505 | 22 | 177 | 3.2 | 11.3 | 0.00 | 0.00 | 0.00 | 33 | 1022.6 |
| 20260502091505 | 22 | 140 | 1.6 | 6.4 | 0.00 | 0.00 | 0.00 | 35 | 1023.1 |
| 20260502091004 | 22 | 97 | 1.6 | 6.4 | 0.00 | 0.00 | 0.00 | 34 | 1023.2 |
| 20260502090505 | 21 | 82 | 1.6 | 6.4 | 0.00 | 0.00 | 0.00 | 35 | 1023.2 |
| 20260502071504 | 18 | 84 | 1.6 | 3.2 | 0.00 | 0.00 | 0.00 | 53 | 1023.9 |
| 20260502071004 | 18 | 70 | 1.6 | 3.2 | 0.00 | 0.00 | 0.00 | 54 | 1023.8 |
| 20260502070504 | 17 | 70 | 1.6 | 3.2 | 0.00 | 0.00 | 0.00 | 55 | 1023.7 |
| 20260502070004 | 17 | 70 | 1.6 | 3.2 | 0.00 | 0.00 | 0.00 | 56 | 1024.0 |
| 20260502065504 | 16 | 74 | 1.6 | 3.2 | 0.00 | 0.00 | 0.00 | 57 | 1023.9 |
| 20260502065004 | 15 | 77 | 1.6 | 3.2 | 0.00 | 0.00 | 0.00 | 58 | 1024.1 |
| 20260502064504 | 15 | 74 | 1.6 | 3.2 | 0.00 | 0.00 | 0.00 | 59 | 1023.9 |
| 20260502064004 | 15 | 77 | 1.6 | 3.2 | 0.00 | 0.00 | 0.00 | 60 | 1024.0 |
| 20260502063504 | 14 | 68 | 1.6 | 3.2 | 0.00 | 0.00 | 0.00 | 60 | 1023.9 |
| 20260502063004 | 14 | 48 | 0.0 | 1.6 | 0.00 | 0.00 | 0.00 | 59 | 1023.9 |
| 20260502062525 | 13 | 43 | 0.0 | 1.6 | 0.00 | 0.00 | 0.00 | 61 | 1024.1 |
| 20260502062004 | 13 | 50 | 0.0 | 1.6 | 0.00 | 0.00 | 0.00 | 63 | 1024.0 |
| 20260502061504 | 12 | 67 | 0.0 | 3.2 | 0.00 | 0.00 | 0.00 | 64 | 1024.1 |
| 20260502061004 | 12 | 70 | 1.6 | 3.2 | 0.00 | 0.00 | 0.00 | 67 | 1023.9 |
| 20260502060525 | 11 | 72 | 1.6 | 3.2 | 0.00 | 0.00 | 0.00 | 69 | 1023.9 |
| 20260502060004 | 11 | 69 | 1.6 | 3.2 | 0.00 | 0.00 | 0.00 | 71 | 1024.1 |
| 20260502055525 | 11 | 60 | 0.0 | 3.2 | 0.00 | 0.00 | 0.00 | 70 | 1024.0 |
| 20260502055004 | 11 | 53 | 0.0 | 1.6 | 0.00 | 0.00 | 0.00 | 71 | 1024.2 |
| 20260502054504 | 11 | 52 | 0.0 | 1.6 | 0.00 | 0.00 | 0.00 | 71 | 1024.3 |
| 20260502054025 | 10 | 42 | 0.0 | 1.6 | 0.00 | 0.00 | 0.00 | 75 | 1024.0 |
| 20260502053504 | 10 | 30 | 0.0 | 1.6 | 0.00 | 0.00 | 0.00 | 74 | 1024.0 |
| 20260502053004 | 9 | 25 | 0.0 | 1.6 | 0.00 | 0.00 | 0.00 | 76 | 1024.0 |
| 20260502052504 | 8 | 20 | 0.0 | 1.6 | 0.00 | 0.00 | 0.00 | 78 | 1024.0 |
| 20260502052004 | 8 | 7 | 0.0 | 1.6 | 0.00 | 0.00 | 0.00 | 76 | 1024.3 |
| 20260502051504 | 8 | 349 | 0.0 | 1.6 | 0.00 | 0.00 | 0.00 | 78 | 1024.2 |
| 20260502051004 | 7 | 336 | 0.0 | 1.6 | 0.00 | 0.00 | 0.00 | 80 | 1024.2 |
| 20260502050504 | 7 | 325 | 0.0 | 1.6 | 0.00 | 0.00 | 0.00 | 80 | 1024.0 |
| 20260502050025 | 7 | 319 | 0.0 | 1.6 | 0.00 | 0.00 | 0.00 | 81 | 1023.9 |
| 20260502045525 | 6 | 318 | 0.0 | 1.6 | 0.00 | 0.00 | 0.00 | 82 | 1023.9 |
| 20260502045025 | 6 | 318 | 0.0 | 1.6 | 0.00 | 0.00 | 0.00 | 83 | 1024.1 |
| 20260502044504 | 6 | 0 | 0.0 | 0.0 | 0.00 | 0.00 | 0.00 | 85 | 1024.0 |
| 20260502044004 | 5 | 316 | 0.0 | 1.6 | 0.00 | 0.00 | 0.00 | 87 | 1023.8 |
| 20260502043504 | 5 | 316 | 0.0 | 1.6 | 0.00 | 0.00 | 0.00 | 87 | 1024.1 |
| 20260502043004 | 4 | 316 | 0.0 | 1.6 | 0.00 | 0.00 | 0.00 | 91 | 1024.0 |
| 20260502042504 | 3 | 0 | 0.0 | 0.0 | 0.00 | 0.00 | 0.00 | 94 | 1023.8 |
| 20260502042004 | 2 | 0 | 0.0 | 0.0 | 0.00 | 0.00 | 0.00 | 96 | 1023.9 |
| 20260502041504 | 2 | 313 | 0.0 | 1.6 | 0.00 | 0.00 | 0.00 | 95 | 1024.0 |
| 20260502041004 | 2 | 313 | 0.0 | 1.6 | 0.00 | 0.00 | 0.00 | 96 | 1023.9 |
| 20260502040525 | 2 | 0 | 0.0 | 0.0 | 0.00 | 0.00 | 0.00 | 97 | 1023.7 |
| 20260502040004 | 2 | 0 | 0.0 | 0.0 | 0.00 | 0.00 | 0.00 | 96 | 1023.8 |
| 20260502035504 | 2 | 0 | 0.0 | 0.0 | 0.00 | 0.00 | 0.00 | 96 | 1023.9 |
| 20260502035025 | 2 | 0 | 0.0 | 0.0 | 0.00 | 0.00 | 0.00 | 95 | 1023.9 |